Back to catalog

STARLINK-32654

AliveCommunicationsVLEO
NORAD 62322·PAYLOAD·🇺🇸 United States

Launched Dec 13, 2024 from Vandenberg Space Force Base

Loading…

Next Passes (next 24 hours)

TLE

FreshSource: CelesTrak SupGP

Epoch: Sep 14, 2026, 21:33 UTC

1 62322C 24239X   26257.89840278  .00030674  00000+0  90639-3 0  2579
2 62322  53.1599  31.5672 0001158  72.9323 224.6670 15.34371051    12

Track STARLINK-32654 in real time with AllMySat

Download on the App Store